Temp
15 16 16 15 15 16 12 13 12 15 15 17 12 10 9 9 9 9 8 7 5 2 1 0 -1 -1 -1 -1 -0 0 0 1 1 1 3 3 4 5 7 11 13 15 15 15
14 15 15 15 15 14 14 14 14 15 16 12 12 11 10 8 9 8 8 7 5 4 2 1 0 -0 -1 -1 -1 -0 -0 -0 -0 0 1 2 3 3 5 6 11 13 14 15
14 15 15 13 13 13 10 12 12 12 12 10 10 9 8 6 8 7 7 7 6 5 3 2 1 1 0 -1 -1 0 -0 -0 -1 -0 0 0 2 2 3 4 5 8 9 10
14 13 11 14 15 15 14 11 13 13 11 8 8 9 7 7 7 7 7 6 6 5 4 3 2 1 1 0 -1 0 0 -0 -1 -0 -0 0 -0 1 2 2 2 2 4 4
13 13 14 12 13 14 14 13 14 11 9 9 9 9 6 8 7 7 7 6 5 5 4 3 2 1 2 2 1 -0 -0 -0 -0 -1 -0 -1 -0 -0 1 0 0 -0 -0 1
13 12 12 14 14 13 13 11 12 10 9 8 8 10 11 7 7 7 6 5 4 4 4 3 1 1 2 1 1 0 -0 0 0 -1 -1 -1 -1 -1 -0 -0 -0 -1 -0 -1
13 12 13 14 12 13 11 10 11 8 8 8 6 6 5 6 7 6 5 5 4 4 3 2 1 1 1 1 0 0 1 0 0 -1 -1 -2 -1 -1 -1 -0 0 -1 -1 -2
12 12 12 13 12 11 11 11 10 9 8 7 7 5 6 7 6 6 5 4 3 3 3 1 0 0 0 -0 -0 0 1 1 0 -0 -2 -2 -3 -2 -2 -1 -1 -1 -1 -2
13 13 12 13 12 11 11 11 10 9 9 6 5 4 6 6 6 5 4 3 2 2 2 1 -0 -0 -1 -1 -1 -0 0 0 0 -1 -1 -3 -3 -4 -4 -3 -2 -2 -2 -2
12 11 12 11 12 11 11 10 10 9 8 6 4 4 4 5 5 4 3 2 1 1 0 0 -1 -1 -1 -2 -1 -0 -0 -1 -0 -1 -1 -3 -4 -4 -5 -6 -4 -4 -3 -3
12 12 11 11 11 10 10 9 8 7 7 6 4 3 4 4 3 2 1 0 -0 -1 -2 -2 -2 -2 -3 -3 -2 -2 -1 -1 -2 -2 -2 -2 -4 -5 -5 -7 -6 -6 -5 -4
11 12 11 10 10 10 9 7 7 7 6 5 3 3 2 2 0 -0 -1 -2 -2 -3 -3 -4 -4 -4 -4 -4 -4 -3 -2 -3 -3 -2 -2 -2 -3 -4 -5 -5 -7 -7 -6 -6
8 10 10 9 9 8 6 5 4 1 3 3 0 0 -0 -0 -3 -3 -4 -4 -5 -5 -6 -6 -5 -5 -6 -5 -5 -5 -4 -4 -4 -4 -3 -4 -4 -3 -3 -5 -5 -6 -6 -6
8 7 6 6 3 4 3 2 2 3 3 2 1 -0 -1 -1 -3 -4 -5 -6 -7 -6 -7 -7 -6 -6 -6 -6 -5 -5 -5 -5 -4 -4 -4 -4 -4 -4 -4 -4 -3 -4 -5 -6
8 8 5 3 3 3 3 4 4 4 3 2 1 -1 -2 -2 -2 -3 -5 -7 -7 -6 -7 -7 -7 -6 -6 -6 -5 -5 -4 -5 -5 -4 -4 -4 -4 -4 -4 -3 -4 -5 -5 -5
7 6 6 5 5 5 4 3 3 2 2 0 -1 -2 -3 -3 -3 -4 -5 -7 -7 -7 -7 -7 -7 -7 -7 -6 -5 -5 -5 -5 -5 -4 -4 -4 -4 -4 -4 -4 -4 -5 -7 -7
6 5 5 5 4 4 3 2 1 0 -1 -2 -4 -4 -4 -5 -6 -7 -8 -8 -7 -7 -8 -8 -8 -7 -7 -6 -5 -5 -5 -5 -6 -5 -5 -5 -4 -4 -4 -4 -4 -5 -6 -7
6 6 6 5 4 2 1 -1 -1 -2 -4 -6 -7 -7 -7 -8 -8 -8 -8 -8 -7 -7 -8 -8 -8 -7 -7 -6 -6 -5 -5 -5 -5 -6 -6 -6 -6 -5 -6 -5 -6 -6 -6 -6
4 3 2 1 1 -0 -2 -4 -6 -7 -7 -7 -7 -8 -9 -9 -9 -8 -8 -8 -8 -8 -8 -8 -8 -7 -7 -7 -6 -5 -5 -5 -5 -6 -6 -6 -7 -7 -7 -6 -6 -7 -7 -7
1 -0 -1 -3 -4 -5 -6 -6 -7 -7 -7 -8 -8 -8 -8 -9 -10 -9 -8 -8 -9 -10 -9 -8 -8 -8 -8 -7 -7 -5 -6 -6 -6 -6 -7 -7 -7 -7 -7 -8 -8 -8 -8 -8
-2 -4 -6 -7 -8 -8 -8 -7 -7 -7 -9 -9 -9 -9 -9 -9 -10 -9 -7 -7 -9 -11 -9 -9 -9 -10 -9 -8 -7 -6 -6 -6 -6 -7 -7 -7 -7 -8 -8 -8 -8 -9 -9 -9
-6 -7 -7 -7 -7 -8 -8 -8 -8 -9 -9 -10 -10 -10 -9 -7 -8 -10 -11 -10 -9 -11 -9 -10 -11 -11 -9 -9 -8 -8 -7 -7 -7 -7 -8 -8 -8 -8 -9 -9 -9 -9 -10 -10
-7 -7 -8 -8 -8 -8 -9 -9 -9 -9 -9 -10 -9 -8 -8 -8 -8 -8 -8 -10 -10 -11 -10 -11 -12 -11 -10 -10 -9 -9 -9 -9 -8 -9 -9 -9 -9 -10 -10 -10 -10 -10 -11 -11
-7 -7 -7 -7 -9 -8 -8 -9 -8 -10 -10 -10 -11 -11 -9 -8 -8 -9 -10 -10 -12 -11 -11 -13 -12 -11 -11 -10 -10 -10 -10 -10 -10 -10 -10 -10 -10 -10 -11 -11 -11 -11 -11 -11
-6 -7 -7 -8 -6 -5 -6 -8 -8 -9 -8 -8 -9 -9 -9 -10 -10 -10 -11 -11 -11 -11 -11 -12 -12 -12 -11 -11 -11 -11 -11 -11 -11 -11 -11 -11 -11 -11 -11 -12 -12 -12 -12 -12
-6 -5 -5 -5 -4 -5 -5 -6 -5 -6 -6 -7 -8 -9 -9 -10 -10 -10 -10 -11 -11 -11 -11 -12 -12 -12 -12 -12 -12 -12 -12 -12 -12 -12 -12 -12 -12 -12 -12 -13 -13 -13 -13 -14
-5 -5 -5 -5 -5 -5 -5 -5 -6 -6 -7 -7 -8 -9 -9 -10 -10 -10 -11 -11 -11 -11 -12 -12 -12 -13 -13 -13 -13 -13 -13 -13 -13 -13 -13 -13 -13 -13 -14 -14 -14 -14 -14 -14
Height
764 757 756 761 766 770 783 784 786 769 769 762 781 793 797 799 796 793 789 787 787 784 778 770 761 752 743 733 726 717 707 696 688 681 676 669 665 659 657 656 657 657 658 661
770 763 760 762 767 773 777 777 774 770 765 783 787 791 795 801 796 795 791 789 788 785 780 774 767 759 751 745 732 725 717 707 699 692 686 683 678 672 669 665 661 664 665 669
759 759 761 769 766 769 784 779 782 782 781 790 792 796 798 804 799 798 794 791 788 784 780 775 770 764 757 748 741 733 722 714 708 702 698 695 690 678 681 675 671 668 671 673
755 763 776 754 756 753 764 780 778 780 788 800 799 796 801 801 801 798 794 792 790 786 781 777 772 767 760 753 748 740 729 721 712 703 711 707 695 678 694 684 683 680 678 677
758 758 753 764 763 759 760 767 766 786 797 796 797 793 801 799 801 799 797 794 792 789 785 780 775 769 764 758 751 747 739 732 725 723 717 707 691 702 698 691 691 689 688 684
759 755 757 748 756 766 766 772 774 789 794 800 799 782 780 801 802 798 797 795 793 789 785 784 780 774 766 762 757 750 744 738 736 731 721 715 712 709 704 699 693 692 690 688
754 757 751 754 768 770 773 779 783 796 796 799 806 806 806 805 801 799 797 794 794 790 787 785 780 774 769 764 760 753 748 743 738 733 730 725 719 711 705 705 698 699 698 700
753 755 757 762 771 769 777 780 786 792 797 800 803 807 805 802 800 799 798 795 794 790 788 786 783 777 771 766 760 755 749 744 739 737 734 729 724 721 717 715 711 708 703 700
750 747 761 764 766 775 777 779 786 792 796 805 808 808 804 802 801 800 800 798 796 793 790 789 785 780 775 771 765 758 753 748 744 741 738 734 731 728 725 722 717 714 711 707
754 762 763 769 773 777 780 784 791 795 799 805 807 809 807 805 804 803 802 801 798 797 794 792 788 784 779 775 769 764 758 754 749 745 743 740 737 734 732 725 723 723 719 717
754 760 767 771 776 781 786 791 795 800 801 803 807 810 810 807 808 808 806 804 803 801 799 795 793 789 785 779 772 768 764 760 756 752 750 746 744 742 738 737 734 729 725 724
754 756 764 772 778 785 789 795 799 801 803 806 811 811 812 810 813 812 810 809 806 804 801 799 796 792 789 786 781 774 768 765 762 759 756 754 751 748 746 744 741 739 736 732
771 771 774 779 786 790 796 803 807 811 810 810 815 816 816 815 816 816 815 814 811 809 806 802 799 796 792 788 785 782 777 773 769 766 764 761 757 754 752 751 749 748 745 742
776 781 786 790 798 800 804 807 809 809 811 814 816 817 817 816 817 817 817 816 814 811 808 804 801 798 794 789 787 785 783 779 775 772 769 765 762 757 757 755 753 751 750 746
776 779 789 798 802 804 805 806 807 808 811 813 816 818 818 817 817 818 818 817 814 812 810 807 804 799 795 791 788 785 782 780 778 776 774 772 770 769 767 763 761 758 757 754
783 787 791 794 798 802 805 808 809 811 814 816 818 820 820 820 820 820 820 819 817 814 811 808 805 801 797 793 789 787 784 782 780 777 776 774 772 769 767 765 763 760 762 760
785 790 793 796 800 804 807 812 814 816 818 821 823 824 823 823 824 825 823 821 819 816 814 811 808 803 800 797 793 790 787 785 783 780 778 776 773 772 770 768 767 765 765 765
786 789 792 797 802 808 813 816 818 820 824 827 827 828 828 828 828 827 825 823 821 818 816 814 811 806 803 799 796 792 789 787 786 784 782 780 778 776 774 772 771 769 768 768
794 798 802 805 809 813 817 821 825 827 828 829 830 831 831 831 830 829 827 825 822 820 819 816 812 809 805 802 799 796 793 792 790 789 787 784 782 782 780 778 777 776 775 773
801 805 809 814 817 820 823 825 827 828 830 831 832 832 832 832 831 829 827 826 827 826 822 818 815 812 809 805 801 799 797 795 793 792 791 790 788 787 786 785 783 782 781 780
807 812 816 820 823 825 826 828 829 831 834 834 835 835 835 834 833 831 828 826 828 826 823 821 818 815 812 808 805 803 801 799 797 796 795 793 792 792 791 790 788 788 787 786
813 817 820 823 825 827 829 831 833 835 836 836 836 836 835 834 833 833 833 833 830 828 825 824 821 819 816 812 810 807 805 803 802 801 800 799 797 797 796 794 793 792 791 791
815 819 823 825 827 830 832 834 836 837 837 838 838 837 837 837 836 835 834 835 833 831 829 827 825 822 818 815 813 812 810 809 807 806 805 804 802 801 799 799 797 796 795 794
817 821 824 826 829 831 833 836 837 838 839 839 839 839 838 837 837 838 837 837 835 832 831 829 827 824 822 820 818 816 814 813 811 809 808 806 805 803 802 801 800 800 799 797
818 822 825 828 829 829 832 835 837 839 839 840 840 840 840 840 840 840 839 838 836 834 832 831 829 827 825 823 821 820 818 816 815 813 811 809 808 806 805 804 803 802 800 799
818 820 823 825 825 828 830 834 833 836 837 838 840 841 841 841 841 840 839 838 837 836 834 833 831 829 827 825 824 822 820 819 817 816 814 812 810 809 807 806 805 804 802 801
818 820 823 825 826 828 830 831 833 835 837 838 839 841 841 841 841 840 840 839 838 836 835 834 833 831 829 828 826 824 823 821 820 818 816 815 813 812 811 809 807 806 805 804
Wind_Speed
4 4 6 11 12 16 12 13 10 12 17 13 10 11 13 13 16 18 18 20 18 15 16 26 31 36 37 38 38 37 34 36 36 35 32 29 28 28 25 19 14 7 9 13
9 8 7 9 11 13 16 15 16 18 17 8 9 11 13 11 15 17 17 18 18 16 18 21 26 29 31 33 34 34 30 31 33 35 33 29 25 29 24 20 16 9 8 2
9 7 7 9 17 16 7 11 12 13 9 13 13 12 12 9 14 16 16 16 17 16 18 21 24 28 27 30 32 29 31 31 32 32 33 28 22 30 23 20 17 15 14 9
5 7 8 2 3 12 16 9 12 10 5 8 11 12 3 6 12 14 16 16 15 19 22 24 24 26 26 25 26 27 30 31 35 40 29 23 26 35 22 21 17 15 12 11
6 11 4 3 5 5 9 9 9 5 4 6 10 14 6 9 12 12 14 15 18 19 19 22 24 25 25 24 25 25 25 26 28 26 24 27 35 24 23 22 19 20 19 15
8 10 7 8 12 4 2 8 8 5 2 4 8 6 5 14 13 13 16 16 18 19 19 19 22 23 22 23 24 25 24 24 22 23 25 25 23 23 21 20 21 19 23 24
8 8 3 9 10 6 5 4 6 6 1 1 3 4 8 11 12 14 15 17 17 17 18 20 22 23 22 24 25 25 23 22 23 24 21 22 22 25 24 21 23 23 22 21
11 10 11 12 9 5 6 6 6 5 3 2 3 6 7 9 10 13 15 17 18 17 18 20 22 23 23 25 28 26 24 23 23 23 23 24 24 23 22 20 19 18 19 20
6 4 10 12 7 7 4 4 5 3 5 3 3 5 8 9 9 12 14 16 17 17 16 18 21 22 23 24 26 25 23 22 21 22 22 24 24 25 23 22 20 20 20 20
6 8 10 8 7 6 5 5 6 3 4 2 3 4 7 8 9 11 13 14 16 17 17 18 20 21 22 24 24 22 21 21 20 20 20 19 23 22 23 26 23 21 19 19
5 8 8 6 6 7 7 4 8 2 4 5 5 4 7 7 9 11 11 14 15 15 16 18 19 19 21 23 24 23 20 19 20 18 19 16 14 21 22 23 25 23 23 18
3 10 2 10 8 6 6 5 4 2 3 6 7 5 8 6 8 11 13 14 15 16 17 18 18 18 19 20 20 21 20 20 20 18 17 16 15 8 16 21 24 23 23 22
4 7 8 10 8 7 8 6 5 6 6 6 7 6 5 7 7 8 11 13 14 15 16 17 17 17 18 18 18 17 16 16 16 17 16 15 15 14 13 6 17 24 22 24
12 12 8 6 4 8 8 7 4 3 3 4 5 4 5 5 4 8 10 12 13 13 15 16 17 17 20 19 18 15 15 13 13 13 15 16 15 15 13 12 12 14 19 23
7 7 10 11 9 6 6 4 2 2 4 4 5 6 7 6 7 8 9 12 13 12 15 16 17 19 21 21 19 15 13 15 15 11 11 11 11 10 10 11 12 14 15 18
9 10 10 8 8 6 4 1 1 3 3 4 5 6 5 5 6 9 11 13 13 14 15 16 18 20 20 20 19 14 13 14 14 13 13 13 13 13 13 14 14 16 17 17
10 8 9 7 5 3 4 5 5 5 5 7 7 7 7 6 7 10 12 12 10 9 14 16 19 20 18 18 16 14 13 13 13 13 14 14 14 14 14 14 14 15 16 18
7 7 5 5 6 6 6 6 7 7 8 7 7 8 9 9 9 9 11 12 12 10 16 17 18 18 16 17 16 13 12 12 12 12 12 13 14 13 13 14 15 15 14 15
11 11 11 10 8 9 8 9 8 8 7 7 7 7 7 8 9 9 8 12 14 14 17 18 18 16 17 17 17 12 11 11 11 11 12 12 12 12 13 13 13 13 13 14
14 14 14 13 12 11 11 9 9 9 8 7 6 6 7 9 9 9 8 10 14 13 15 16 17 16 17 16 17 12 11 11 11 11 12 11 12 12 11 11 12 12 12 12
14 14 14 13 13 12 10 8 9 9 7 7 6 6 6 5 6 11 11 11 15 16 15 15 16 18 16 17 15 13 12 11 11 11 11 11 11 11 11 11 11 11 11 11
14 14 14 14 13 13 10 10 10 8 7 7 5 1 3 5 1 5 11 11 13 16 14 14 16 18 16 15 13 14 13 13 12 11 11 11 11 10 10 10 10 10 10 9
15 15 14 13 13 13 11 10 9 8 7 6 5 6 6 6 8 9 8 12 12 12 12 14 16 16 16 14 14 14 13 13 12 11 10 10 10 10 9 10 10 10 9 9
16 15 14 13 13 11 10 8 7 6 6 5 5 5 6 4 4 6 6 8 11 11 10 14 14 14 13 13 13 13 13 13 13 12 11 11 10 10 10 10 10 9 9 8
16 15 14 12 10 8 10 8 7 5 4 4 3 3 3 4 5 5 6 7 9 10 10 12 13 13 12 12 12 11 11 12 12 12 11 11 11 10 10 10 9 9 9 9
16 13 12 10 6 9 9 9 7 6 5 4 4 2 2 3 3 3 3 5 6 8 9 10 11 11 11 11 11 11 10 10 11 11 11 10 11 11 11 10 10 9 9 8
12 11 10 9 8 8 7 7 7 6 4 3 4 2 2 1 2 3 3 5 6 7 7 8 8 10 10 10 10 10 10 9 10 9 9 9 9 9 10 10 9 9 8 7
Wind_Direction
216 162 164 183 201 214 212 223 262 288 311 325 14 6 349 347 335 351 349 353 352 348 343 344 345 344 346 346 349 350 356 6 7 6 6 8 12 14 10 28 27 23 180 173
219 219 207 218 214 218 226 239 252 262 272 21 349 347 346 347 337 346 349 353 352 347 348 346 347 346 338 342 349 350 354 5 5 8 6 5 11 19 12 15 36 28 20 217
231 200 212 245 234 225 206 226 242 261 315 337 331 333 348 340 340 340 347 352 352 350 351 351 349 345 347 345 346 352 358 3 6 11 2 359 9 31 9 19 27 46 49 53
205 158 217 113 301 224 202 209 239 265 312 308 306 311 4 349 344 340 347 350 354 352 349 352 348 348 345 351 353 357 359 3 5 11 352 353 12 32 11 22 33 35 56 57
211 209 140 176 204 164 189 219 202 214 244 285 310 293 159 14 351 342 346 351 352 349 353 354 352 349 349 356 357 2 3 5 6 357 351 5 22 11 8 27 32 46 44 43
201 230 222 80 123 113 133 245 147 159 278 316 315 314 13 355 333 341 346 356 353 350 354 2 355 351 355 358 358 3 2 5 8 6 4 9 12 9 25 30 38 39 41 37
207 220 138 141 139 158 213 97 124 125 172 305 312 309 329 319 325 340 345 353 356 355 359 1 358 358 1 0 359 356 359 4 9 15 17 14 11 17 23 23 35 35 43 39
223 219 232 137 152 225 92 123 125 140 110 332 331 318 311 317 332 341 346 354 358 356 3 2 1 358 358 1 353 354 358 3 11 13 17 18 23 23 23 25 30 28 31 31
217 216 119 163 96 110 96 107 113 104 87 23 328 323 325 326 338 344 351 353 357 357 2 4 3 3 358 356 354 353 359 3 8 11 16 20 22 26 26 23 30 29 25 27
149 153 139 133 116 118 111 114 121 91 84 95 337 326 327 332 342 347 355 356 357 358 2 2 2 2 1 355 355 358 360 4 5 12 12 22 26 25 26 24 23 24 29 27
132 147 120 161 151 140 120 120 106 64 43 39 8 340 327 340 347 348 356 358 360 0 358 359 359 4 2 359 356 359 2 6 6 10 11 18 34 35 35 35 34 27 22 30
172 133 158 135 135 134 139 123 97 51 38 29 20 355 334 359 358 353 357 356 358 358 357 354 356 359 3 1 1 1 2 1 8 8 11 17 17 32 31 39 42 44 41 41
115 97 100 101 119 98 106 103 95 75 30 12 55 349 357 349 31 355 354 356 356 353 351 351 353 354 358 0 1 2 1 4 3 8 6 13 15 20 21 32 37 42 44 43
110 102 100 82 89 101 119 118 124 71 66 35 23 8 357 353 55 26 12 354 347 351 355 354 352 354 354 357 356 1 4 8 7 11 11 9 14 18 20 22 23 31 33 40
125 65 121 128 131 131 140 161 175 3 17 28 32 17 15 11 14 11 17 4 352 2 0 358 356 354 353 357 354 357 5 7 359 9 13 19 19 25 28 36 43 41 29 25
119 116 130 131 137 133 129 105 54 50 32 42 34 27 27 26 19 13 8 5 5 1 359 360 358 352 352 356 358 1 3 10 5 9 12 17 23 25 30 32 37 43 36 24
136 137 145 142 143 136 93 80 70 60 57 52 34 23 35 32 39 16 9 5 0 8 8 3 356 354 356 358 353 0 5 8 10 14 16 13 20 24 26 30 31 39 41 30
99 105 103 135 134 129 102 87 76 65 59 53 58 57 49 39 27 15 11 6 7 16 13 2 358 356 0 2 356 0 6 9 13 16 16 20 18 21 24 29 28 28 30 31
110 104 99 98 101 105 100 86 79 83 84 85 79 63 51 34 18 10 2 17 15 9 1 0 356 1 4 1 359 4 9 13 16 18 18 20 26 27 25 25 29 29 29 32
107 103 101 95 94 104 104 101 97 96 91 92 89 67 50 34 18 2 356 55 26 3 356 2 4 4 2 360 359 12 16 18 21 23 24 24 25 25 27 28 28 30 31 35
109 109 108 107 102 97 95 103 105 100 87 78 75 64 58 46 36 25 20 27 15 5 5 9 11 6 2 1 5 11 16 20 21 22 22 21 24 25 25 24 28 27 28 31
122 118 115 115 112 105 100 103 108 107 95 84 79 45 284 34 132 83 68 27 10 8 8 9 5 3 5 9 15 17 17 18 19 20 23 21 21 22 25 26 25 25 27 27
128 130 126 125 125 119 113 109 109 107 102 89 69 54 42 47 31 19 9 13 8 7 12 8 5 7 5 14 16 16 17 18 18 19 19 18 22 20 26 23 22 24 22 22
134 136 134 132 133 134 133 133 126 116 113 103 69 39 16 15 69 29 16 11 7 2 17 13 10 11 14 16 17 17 18 15 13 16 16 18 19 20 22 18 19 20 20 22
140 140 141 147 156 159 137 148 139 137 150 110 104 83 46 37 27 13 8 4 8 12 13 13 14 13 18 16 16 15 13 15 12 10 12 14 14 15 15 16 17 12 15 18
151 155 158 174 164 155 159 170 175 164 162 144 117 82 59 39 21 13 5 14 10 11 11 10 12 12 13 14 12 13 12 12 10 12 12 12 12 12 11 11 12 14 16 16
160 151 151 160 163 166 168 174 162 166 180 153 122 111 67 18 16 4 6 2 2 3 3 3 6 8 8 8 10 9 9 9 12 8 9 9 9 8 5 4 4 5 7 14